#timestamp,LO_Frequency,Hit,StdDev 
1511794815.7,286046996.1,N
1511794835.6,286046993.8,Y
1511794855.4,286046997.3,P
1511794875.2,286047002.6,P
1511794895.1,286047003.8,N
1511794896.0,286047003.8,N
1511794915.8,286047004.2,N
1511794935.6,286047001.8,N
1511794955.5,286047005.8,N
1511794975.3,286047005.7,N
1511794995.1,286047005.2,N
1511795015.9,286047006.2,N
1511795035.7,286047008.6,N
1511795055.5,286047006.7,N
1511795075.3,286047003.9,N
1511795095.2,286046999.8,N
1511795115.0,286046999.0,N
1511795115.9,286046999.0,N
1511795135.7,286046999.4,N
1511795155.6,286046997.6,N
1511795175.4,286046996.2,N
1511795195.2,286046995.9,N
1511795215.1,286046993.4,N
1511795216.0,286046993.4,N
1511795235.8,286046995.1,N
1511795255.6,286046994.6,N
1511795275.5,286046996.4,N
1511795295.3,286046994.8,N
1511795315.1,286046992.2,N
1511795335.9,286046994.7,N
1511795355.7,286046988.5,N
1511795375.5,286046985.3,N
1511795395.3,286046989.1,N
1511795415.2,286046991.1,N
1511795435.0,286046992.5,N
1511795435.9,286046992.5,N
1511795455.7,286046994.5,N
1511795475.6,286046994.7,N
1511795495.4,286046994.0,N
1511795515.2,286046994.2,N
1511795535.1,286046995.5,N
1511795536.0,286046995.5,N
1511795555.8,286046997.0,N
1511795575.6,286046995.1,N
1511795595.5,286046995.1,N
1511795615.3,286046993.9,N
1511795635.1,286046993.7,N
1511795655.9,286046997.9,N
1511795675.7,286047000.7,N
1511795695.5,286046999.6,N
1511795715.3,286046999.0,N
1511795735.2,286047000.7,N
1511795755.0,286046998.6,N
1511795755.9,286046998.6,N
1511795775.7,286047000.8,N
1511795795.6,286047001.2,N
1511795815.4,286047003.6,N
1511795835.2,286047003.6,N
1511795855.1,286047005.4,N
1511795856.0,286047005.4,N
1511795875.8,286047005.5,N
1511795895.6,286047006.1,N
1511795915.5,286047008.2,N
1511795935.3,286047010.8,N
1511795955.1,286047007.8,N
1511795975.9,286047011.5,N
1511795995.7,286047014.5,N
1511796015.5,286047016.1,N
1511796035.4,286047019.8,Y
1511796055.2,286047018.6,P
1511796075.0,286047017.9,N
1511796075.9,286047017.9,N
1511796095.8,286047015.8,N
1511796115.6,286047018.7,N
1511796135.4,286047017.8,N
1511796155.3,286047019.5,Y
1511796175.1,286047004.0,P
1511796176.0,286047004.0,N
1511796195.8,286047003.3,N
1511796215.7,286047001.3,N
1511796235.5,286047001.6,N
1511796255.3,286046999.7,N
1511796275.1,286046998.4,N
1511796295.9,286047000.5,N
1511796315.7,286047000.7,N
1511796335.5,286047000.0,N
1511796355.4,286047000.8,N
1511796375.2,286046997.7,N
1511796395.0,286046995.0,N
1511796395.9,286046995.0,N
1511796415.8,286047000.7,N
1511796435.6,286046998.1,N
1511796455.4,286047000.1,N
1511796475.3,286047000.7,N
1511796495.1,286046998.9,N
1511796496.0,286046998.9,N
1511796515.8,286046996.8,N
1511796535.6,286046997.6,N
1511796555.5,286046998.9,N
1511796575.3,286046998.9,N
1511796595.1,286047001.5,N
1511796615.9,286047001.8,N
1511796635.7,286047001.7,N
1511796655.5,286047001.2,N
1511796675.4,286046998.8,N
1511796695.2,286047002.4,N
1511796715.0,286047002.6,N
1511796715.9,286047002.6,N
1511796735.8,286047002.6,N
1511796755.6,286047006.0,N
1511796775.4,286047007.0,Y
1511796795.3,286047003.7,P
1511796815.1,286047002.2,N
1511796816.0,286047002.2,N
1511796835.8,286046998.3,N
1511796855.7,286046998.9,N
1511796875.5,286046998.5,N
1511796895.3,286047001.0,N
1511796915.1,286047003.6,N
1511796935.9,286047002.3,N
1511796955.7,286046998.2,N
1511796975.5,286046996.8,N
1511796995.4,286047000.0,N
1511797015.2,286047004.2,N
1511797035.0,286047002.0,N
1511797035.9,286047002.0,N
1511797055.8,286047001.0,N
1511797075.6,286046995.8,N
1511797095.4,286046995.9,N
1511797115.3,286046997.4,N
1511797135.1,286047000.8,N
1511797136.0,286047000.8,N
1511797155.8,286047000.7,N
1511797175.7,286047001.6,N
1511797195.5,286046999.7,N
1511797215.3,286047000.1,N
1511797235.1,286047004.2,N
1511797255.9,286047000.0,N
1511797275.7,286047004.2,N
1511797295.5,286046999.8,N
1511797315.4,286047002.9,N
1511797335.2,286047004.2,N
1511797355.0,286047000.5,N
1511797355.9,286047000.5,N
1511797375.8,286047001.3,N
1511797395.6,286047002.7,N
1511797415.4,286047002.4,N
1511797435.3,286047000.8,N
1511797455.1,286047001.6,N
1511797456.0,286047001.6,N
1511797475.8,286047004.1,N
1511797495.7,286047003.6,N
1511797515.5,286047002.5,N
1511797535.3,286046997.2,N
1511797555.2,286046996.7,N
1511797575.9,286046999.6,N
1511797595.7,286046997.6,N
1511797615.6,286046998.0,N
1511797635.4,286046995.2,N
1511797655.2,286046994.6,N
1511797675.0,286046993.7,N
1511797676.0,286046993.7,N
1511797695.8,286046999.1,N
1511797715.6,286046992.2,N
1511797735.4,286046994.7,N
1511797755.3,286046994.4,N
1511797775.1,286046994.7,N
1511797795.8,286046990.5,N
1511797815.7,286046991.3,N
1511797835.5,286046990.4,N
1511797855.3,286046993.1,N
1511797875.2,286046990.0,N
1511797895.9,286046984.1,Y
1511797915.7,286046991.8,P
1511797935.6,286046995.5,N
1511797955.4,286046996.3,N
1511797975.2,286046992.8,Y
1511797995.1,286046993.3,P
1511797996.0,286046993.3,P
1511798015.8,286046995.4,P
1511798035.6,286046990.2,Y
1511798055.5,286046998.3,P
1511798075.3,286047000.8,N
1511798095.1,286047000.3,N
1511798115.9,286046998.7,N
1511798135.7,286046996.5,N
1511798155.5,286046999.1,N
1511798175.4,286046998.8,N
1511798195.2,286046998.2,N
1511798215.0,286047001.2,N
1511798215.9,286047001.2,N
1511798235.8,286046996.9,N
1511798255.6,286047000.6,N
1511798275.4,286047001.7,N
1511798295.2,286046998.1,N
1511798315.1,286046999.4,N
1511798316.0,286046999.4,N
1511798335.8,286046998.3,N
1511798355.6,286046999.6,N
1511798375.5,286046995.8,N
1511798395.3,286046999.3,N
